This demonstration page uses our WeatherBlox Daily Observations layout. Learn more.

Left ArrowRight Arrow

Hourly Observations for March 2, 2021

Temp ( °F °C ) Dew Point ( °F °C ) Humidity (%) Winds ( mph kmh ) Pressure ( in mb ) Visibility ( mi km ) Precip ( " mm )
12:53 am 00:53 Clear 28 -2.2 17 -8.3 63 63 NW 7 11 30.09 1019 10 16.0934 0 0
1:53 am 01:53 Clear 27 -2.8 17 -8.3 66 66 NNW 7 11 30.07 1018 10 16.0934 0 0
2:53 am 02:53 Clear 28 -2.2 17 -8.3 63 63 NW 6 9 30.04 1017 10 16.0934 0 0
3:53 am 03:53 Clear 26 -3.3 16 -8.9 66 66 N 6 9 30.02 1017 10 16.0934 0 0
4:53 am 04:53 Clear 28 -2.2 16 -8.9 60 60 NW 7 11 30 1016 10 16.0934 0 0
5:53 am 05:53 Clear 30 -1.1 15 -9.4 54 54 NNW 5 7 30.01 1016 10 16.0934 0 0
6:53 am 06:53 Sunny 25 -3.9 16 -8.9 69 69 WNW 5 7 30.03 1017 10 16.0934 0 0
7:53 am 07:53 Sunny 40 4.4 20 -6.7 45 45 WNW 10 17 29.99 1016 10 16.0934 0 0
8:53 am 08:53 Sunny 50 10 16 -8.9 26 26 WNW 25 41 29.98 1015 10 16.0934 0 0
9:53 am 09:53 Sunny 55 12.8 15 -9.4 20 20 W 25 41 29.98 1015 10 16.0934 0 0
10:53 am 10:53 Sunny 59 15 14 -10 17 17 WNW 18 30 29.98 1015 10 16.0934 0 0
11:53 am 11:53 Sunny 62 16.7 15 -9.4 16 16 NW 20 31 29.96 1015 10 16.0934 0 0
12:53 pm 12:53 Sunny 63 17.2 15 -9.4 15 15 NW 18 30 29.93 1013 10 16.0934 0 0
1:53 pm 13:53 Sunny 63 17.2 17 -8.3 17 17 NW 18 30 29.91 1013 10 16.0934 0 0
2:53 pm 14:53 Sunny 62 16.7 19 -7.2 19 19 NNW 17 28 29.92 1013 10 16.0934 0 0
3:53 pm 15:53 Sunny 60 15.6 18 -7.8 19 19 NNW 17 28 29.93 1013 10 16.0934 0 0
4:53 pm 16:53 Sunny 58 14.4 18 -7.8 21 21 N 10 17 29.93 1014 10 16.0934 0 0
5:53 pm 17:53 Clear 47 8.3 19 -7.2 33 33 N 6 9 29.96 1014 10 16.0934 0 0
6:53 pm 18:53 Clear 41 5 20 -6.7 43 43 S 3 6 30 1016 10 16.0934 0 0
7:53 pm 19:53 Clear 36 2.2 20 -6.7 52 52 NNW 3 6 29.98 1015 10 16.0934 0 0
8:53 pm 20:53 Clear 33 0.6 21 -6.1 61 61 Calm 29.97 1015 10 16.0934 0 0
9:53 pm 21:53 Clear 32 0 20 -6.7 61 61 Calm 29.95 1014 10 16.0934 0 0
10:53 pm 22:53 Clear 31 -0.6 19 -7.2 61 61 SSE 6 9 29.95 1014 10 16.0934 0 0
11:53 pm 23:53 Clear 29 -1.7 17 -8.3 61 61 E 5 7 29.95 1014 10 16.0934 0 0

Powered by AerisWeather